Location: B�rgermoos
(47.6500°N, 9.0667°E)
Time: 06:38:47
(UTC+00:00)

S-56A Canister/Altair - Visible Passes

Search period start: 31 July 2021 00:00
Search period end: 10 August 2021 00:00
Orbit: 631 x 2501 km, 38.9° (Epoch: 30 July)

Date Brightness Start Highest point End Pass type
(mag) Time Alt. Az. Time Alt. Az. Time Alt. Az.
31 Jul 10.5 19:53:41 10° W 20:06:23 37° SW 20:16:34 10° SSE visible
31 Jul 10.9 22:04:46 10° WSW 22:09:04 12° SW 22:13:01 10° SW visible
01 Aug 10.6 19:19:57 10° W 19:33:13 40° SSW 19:44:11 10° SSE visible
01 Aug 10.9 21:29:31 10° W 21:36:18 16° SW 21:42:18 10° SSW visible
02 Aug 10.9 20:54:55 10° W 21:03:28 19° SW 21:10:55 10° SSW visible
03 Aug 11.0 20:20:38 10° W 20:30:32 22° SW 20:39:08 10° S visible
04 Aug 11.0 19:46:35 10° W 19:57:32 26° SW 20:07:08 10° S visible
05 Aug 11.0 19:12:42 10° W 19:24:27 29° SW 19:34:55 10° S visible
07 Aug 11.5 20:16:31 10° WSW 20:21:19 12° SW 20:25:54 10° SW visible
08 Aug 11.4 19:41:19 10° W 19:48:22 15° SW 19:55:06 10° SSW visible
09 Aug 11.4 19:06:50 10° W 19:15:22 18° SW 19:23:34 10° SSW visible
